When you browse on this site, cookies collect data to enhance your experience and personalize the content and advertising you see.
Visit our Privacy Policy to learn more. By continuing to use the site, you agree to this use of cookies and data.
  • In Deutschland
  • Länderverzeichnis
  • Für 7 Tage
  • Wassertemperatur
  • Wetterkarte
  • Widgets
  • user-avatar
    Anmelden

    Stündliche Wetter Düsseldorf

    Heute, 20 August, Dienstag

    Zeit Temperatur Niederschläge Wind Luftdruck Luftfeuchtigkeit
    00:00 +16°C° 0 mm 3 m/S 762 mmHg 69%
    01:00 +16°C° 0 mm 2 m/S 762 mmHg 71%
    02:00 +15°C° 0 mm 2 m/S 762 mmHg 73%
    03:00 +14°C° 0 mm 2 m/S 762 mmHg 74%
    04:00 +15°C° 0 mm 2 m/S 762 mmHg 74%
    05:00 +15°C° 0 mm 2 m/S 762 mmHg 74%
    06:00 +15°C° 0 mm 2 m/S 763 mmHg 73%
    07:00 +16°C° 0 mm 2 m/S 763 mmHg 69%
    08:00 +18°C° 0 mm 3 m/S 763 mmHg 64%
    09:00 +19°C° 0 mm 3 m/S 763 mmHg 59%
    10:00 +20°C° 0 mm 3 m/S 763 mmHg 54%
    11:00 +21°C° 0 mm 3 m/S 763 mmHg 49%
    12:00 +22°C° 0 mm 3 m/S 763 mmHg 45%
    13:00 +22°C° 0 mm 3 m/S 763 mmHg 44%
    14:00 +24°C° 0 mm 3 m/S 763 mmHg 44%
    15:00 +24°C° 0 mm 3 m/S 763 mmHg 44%
    16:00 +22°C° 0.1 mm 3 m/S 763 mmHg 50%
    17:00 +21°C° 0.1 mm 3 m/S 764 mmHg 56%
    18:00 +20°C° 0.1 mm 2 m/S 764 mmHg 61%
    19:00 +19°C° 0 mm 2 m/S 764 mmHg 64%
    20:00 +17°C° 0 mm 2 m/S 765 mmHg 67%
    21:00 +16°C° 0 mm 2 m/S 765 mmHg 69%
    22:00 +16°C° 0 mm 1 m/S 766 mmHg 71%
    23:00 +15°C° 0 mm 1 m/S 766 mmHg 72%

    Morgen, 21 August, Mittwoch

    Zeit Temperatur Niederschläge Wind Luftdruck Luftfeuchtigkeit
    00:00 +15°C° 0 mm 1 m/S 766 mmHg 74%
    01:00 +14°C° 0 mm 1 m/S 766 mmHg 75%
    02:00 +14°C° 0 mm 1 m/S 767 mmHg 77%
    03:00 +14°C° 0 mm 1 m/S 767 mmHg 78%
    04:00 +14°C° 0 mm 1 m/S 767 mmHg 76%
    05:00 +15°C° 0 mm 1 m/S 767 mmHg 74%
    06:00 +14°C° 0 mm 0 m/S 767 mmHg 72%
    07:00 +18°C° 0 mm 1 m/S 767 mmHg 65%
    08:00 +20°C° 0 mm 1 m/S 767 mmHg 57%
    09:00 +21°C° 0 mm 1 m/S 767 mmHg 50%
    10:00 +23°C° 0 mm 1 m/S 767 mmHg 46%
    11:00 +24°C° 0 mm 1 m/S 767 mmHg 41%
    12:00 +23°C° 0 mm 0 m/S 766 mmHg 37%
    13:00 +25°C° 0 mm 1 m/S 766 mmHg 36%
    14:00 +25°C° 0 mm 1 m/S 766 mmHg 35%
    15:00 +25°C° 0 mm 1 m/S 766 mmHg 34%
    16:00 +24°C° 0 mm 1 m/S 766 mmHg 38%
    17:00 +23°C° 0 mm 1 m/S 766 mmHg 42%
    18:00 +22°C° 0 mm 1 m/S 765 mmHg 46%
    19:00 +21°C° 0 mm 1 m/S 766 mmHg 49%
    20:00 +20°C° 0 mm 1 m/S 766 mmHg 52%
    21:00 +18°C° 0 mm 2 m/S 766 mmHg 55%
    22:00 +18°C° 0 mm 1 m/S 766 mmHg 56%
    23:00 +18°C° 0 mm 1 m/S 766 mmHg 57%

    übermorgen, 22 August, Donnerstag

    Zeit Temperatur Niederschläge Wind Luftdruck Luftfeuchtigkeit
    00:00 +18°C° 0 mm 1 m/S 766 mmHg 58%
    01:00 +16°C° 0 mm 1 m/S 766 mmHg 60%
    02:00 +16°C° 0 mm 1 m/S 765 mmHg 62%
    03:00 +16°C° 0 mm 1 m/S 765 mmHg 64%
    04:00 +16°C° 0 mm 1 m/S 765 mmHg 65%
    05:00 +16°C° 0 mm 1 m/S 765 mmHg 65%
    06:00 +18°C° 0 mm 1 m/S 765 mmHg 65%
    07:00 +20°C° 0 mm 1 m/S 765 mmHg 60%
    08:00 +20°C° 0 mm 2 m/S 766 mmHg 55%
    09:00 +23°C° 0 mm 2 m/S 766 mmHg 49%
    10:00 +24°C° 0 mm 2 m/S 765 mmHg 46%
    11:00 +25°C° 0 mm 2 m/S 765 mmHg 43%
    12:00 +26°C° 0 mm 2 m/S 765 mmHg 40%
    13:00 +27°C° 0 mm 2 m/S 765 mmHg 39%
    14:00 +27°C° 0 mm 2 m/S 765 mmHg 38%
    15:00 +27°C° 0 mm 2 m/S 765 mmHg 37%
    16:00 +26°C° 0 mm 2 m/S 765 mmHg 41%
    17:00 +24°C° 0 mm 2 m/S 765 mmHg 45%
    18:00 +23°C° 0 mm 2 m/S 765 mmHg 49%
    19:00 +21°C° 0 mm 2 m/S 766 mmHg 53%
    20:00 +20°C° 0 mm 2 m/S 766 mmHg 57%
    21:00 +20°C° 0 mm 1 m/S 766 mmHg 61%
    22:00 +20°C° 0 mm 1 m/S 766 mmHg 62%
    23:00 +19°C° 0 mm 1 m/S 766 mmHg 63%

    23 August, Freitag

    Zeit Temperatur Niederschläge Wind Luftdruck Luftfeuchtigkeit
    00:00 +19°C° 0 mm 1 m/S 766 mmHg 64%
    01:00 +18°C° 0 mm 1 m/S 766 mmHg 65%
    02:00 +18°C° 0 mm 1 m/S 766 mmHg 66%
    03:00 +18°C° 0 mm 1 m/S 766 mmHg 67%
    04:00 +18°C° 0 mm 1 m/S 766 mmHg 66%
    05:00 +19°C° 0 mm 1 m/S 766 mmHg 65%
    06:00 +19°C° 0 mm 1 m/S 766 mmHg 64%
    07:00 +21°C° 0 mm 1 m/S 766 mmHg 57%
    08:00 +23°C° 0 mm 1 m/S 766 mmHg 51%
    09:00 +25°C° 0 mm 1 m/S 766 mmHg 45%
    10:00 +27°C° 0 mm 1 m/S 766 mmHg 41%
    11:00 +28°C° 0 mm 1 m/S 765 mmHg 38%
    12:00 +30°C° 0 mm 1 m/S 765 mmHg 34%
    13:00 +30°C° 0 mm 1 m/S 764 mmHg 33%
    14:00 +30°C° 0 mm 1 m/S 764 mmHg 32%
    15:00 +30°C° 0 mm 1 m/S 764 mmHg 31%
    16:00 +29°C° 0 mm 2 m/S 764 mmHg 36%
    17:00 +28°C° 0 mm 2 m/S 763 mmHg 41%
    18:00 +26°C° 0 mm 2 m/S 763 mmHg 47%
    19:00 +25°C° 0 mm 2 m/S 763 mmHg 49%
    20:00 +24°C° 0 mm 2 m/S 764 mmHg 52%
    21:00 +23°C° 0 mm 2 m/S 764 mmHg 54%
    22:00 +23°C° 0 mm 2 m/S 763 mmHg 55%
    23:00 +21°C° 0 mm 2 m/S 763 mmHg 56%

    24 August, Samstag

    Zeit Temperatur Niederschläge Wind Luftdruck Luftfeuchtigkeit
    00:00 +21°C° 0 mm 2 m/S 763 mmHg 56%
    01:00 +20°C° 0 mm 2 m/S 763 mmHg 58%
    02:00 +20°C° 0 mm 2 m/S 762 mmHg 60%
    03:00 +19°C° 0 mm 2 m/S 762 mmHg 61%
    04:00 +19°C° 0 mm 2 m/S 762 mmHg 62%
    05:00 +21°C° 0 mm 1 m/S 762 mmHg 63%
    06:00 +21°C° 0 mm 1 m/S 762 mmHg 64%
    07:00 +23°C° 0 mm 1 m/S 762 mmHg 58%
    08:00 +25°C° 0 mm 2 m/S 762 mmHg 52%
    09:00 +27°C° 0 mm 2 m/S 762 mmHg 46%
    10:00 +28°C° 0 mm 2 m/S 761 mmHg 42%
    11:00 +29°C° 0 mm 2 m/S 761 mmHg 37%
    12:00 +31°C° 0 mm 2 m/S 760 mmHg 33%
    13:00 +31°C° 0 mm 2 m/S 760 mmHg 32%
    14:00 +31°C° 0 mm 2 m/S 760 mmHg 31%
    15:00 +31°C° 0 mm 2 m/S 759 mmHg 30%
    16:00 +30°C° 0 mm 1 m/S 759 mmHg 35%
    17:00 +29°C° 0 mm 1 m/S 759 mmHg 40%
    18:00 +27°C° 0 mm 1 m/S 759 mmHg 45%
    19:00 +26°C° 0 mm 1 m/S 759 mmHg 47%
    20:00 +25°C° 0 mm 1 m/S 759 mmHg 50%
    21:00 +25°C° 0 mm 1 m/S 759 mmHg 52%
    22:00 +24°C° 0 mm 1 m/S 759 mmHg 54%
    23:00 +23°C° 0 mm 1 m/S 759 mmHg 57%

    25 August, Sonntag

    Zeit Temperatur Niederschläge Wind Luftdruck Luftfeuchtigkeit
    00:00 +23°C° 0 mm 1 m/S 759 mmHg 59%
    01:00 +23°C° 0 mm 1 m/S 759 mmHg 61%
    02:00 +22°C° 0 mm 1 m/S 759 mmHg 64%
    03:00 +22°C° 0 mm 1 m/S 759 mmHg 66%
    04:00 +22°C° 0 mm 1 m/S 759 mmHg 66%
    05:00 +22°C° 0 mm 1 m/S 759 mmHg 67%
    06:00 +22°C° 0 mm 1 m/S 759 mmHg 67%
    07:00 +24°C° 0 mm 1 m/S 759 mmHg 62%
    08:00 +26°C° 0 mm 1 m/S 759 mmHg 57%
    09:00 +28°C° 0 mm 1 m/S 759 mmHg 52%
    10:00 +29°C° 0 mm 1 m/S 759 mmHg 48%
    11:00 +30°C° 0 mm 1 m/S 758 mmHg 44%
    12:00 +31°C° 0 mm 1 m/S 758 mmHg 40%
    13:00 +31°C° 0 mm 2 m/S 758 mmHg 39%
    14:00 +31°C° 0 mm 2 m/S 758 mmHg 38%
    15:00 +33°C° 0 mm 3 m/S 757 mmHg 36%
    16:00 +30°C° 0 mm 3 m/S 758 mmHg 42%
    17:00 +29°C° 0 mm 3 m/S 758 mmHg 47%
    18:00 +27°C° 0 mm 3 m/S 758 mmHg 52%
    19:00 +26°C° 0 mm 2 m/S 758 mmHg 53%
    20:00 +25°C° 0 mm 2 m/S 758 mmHg 53%
    21:00 +24°C° 0 mm 1 m/S 758 mmHg 54%
    22:00 +24°C° 0 mm 1 m/S 758 mmHg 56%
    23:00 +23°C° 0 mm 1 m/S 758 mmHg 58%
    Mehr zeigen